Weather History for KHSI - December, 2013

Change the Weather History Date:

Saturday, December 14, 2013

  Actual Average Record
Temperature  
Mean Temperature 24 °F 28 °F  
Max Temperature 34 °F 37 °F 64 °F (1966)
Min Temperature 14 °F 18 °F -13 °F (1917)
Degree Days  
Heating Degree Days 41 38  
Month to date heating degree days 646 499  
Since 1 July heating degree days 1911 1780  
Cooling Degree Days 0 0  
Month to date cooling degree days 0 0  
Year to date cooling degree days 1158 1077  
Moisture  
Dew Point 16 °F    
Average Humidity 77    
Maximum Humidity 92    
Minimum Humidity 61    
Precipitation  
Precipitation T in 0.01 in 0.62 in (1992)
Month to date precipitation 0.13 0.40  
Year to date precipitation 25.20 26.90  
Snow  
Snow T in 0.20 in 5.00 in (1973)
Month to date snowfall 4.4 2.6  
Since 1 July snowfall 4.8 6.4  
Snow Depth T in    
Sea Level Pressure  
Sea Level Pressure 30.21 in    
Wind  
Wind Speed 10 mph (NW)    
Max Wind Speed 22 mph    
Max Gust Speed 26 mph    
Visibility 8 miles    
Events      
T = Trace of Precipitation, MM = Missing Value Source: NWS Daily Summary

Daily Weather History Graph

Daily Weather History Graph

Search for Another Location

Airport or City:

Trip Planner

Search our weather history database for the weather conditions in past years. The results will help you decide how hot, cold, wet, or windy it might be!

Date:

Astronomy

Dec. 14, 2013 Rise Set
Actual Time 7:49 AM CST 5:07 PM CST
Civil Twilight 7:18 AM CST 5:38 PM CST
Nautical Twilight 6:44 AM CST 6:12 PM CST
Astronomical Twilight 6:11 AM CST 6:45 PM CST
Moon 3:30 PM CST (12/14) 5:11 AM CST (12/14)
Length of Visible Light 10h 19m
Length of Day
9h 17m
Waxing Gibbous, 94% of the Moon is Illuminated
Dec 14
Waxing Gibbous
Dec 17
Full
Dec 25
Last Quarter
Jan 1
New
Jan 7
First Quarter

Hourly Weather History & Observations

Time (CST) Temp. Windchill Dew Point Humidity Pressure Visibility Wind Dir Wind Speed Gust Speed Precip Events Conditions
12:53 AM 19.0 °F 4.5 °F 16.0 °F 88% 30.16 in 5.0 mi North 16.1 mph - N/A   Overcast
1:36 AM 18.0 °F 0.9 °F 15.1 °F 88% 30.10 in 6.0 mi North 21.9 mph - N/A   Overcast
1:53 AM 18.0 °F 2.2 °F 15.1 °F 88% 30.17 in 6.0 mi North 18.4 mph 25.3 mph N/A   Overcast
2:53 AM 18.0 °F 4.2 °F 14.0 °F 84% 30.19 in 6.0 mi North 13.8 mph - N/A   Overcast
3:53 AM 17.1 °F 2.5 °F 12.9 °F 84% 30.20 in 7.0 mi North 15.0 mph - N/A   Mostly Cloudy
4:01 AM 17.1 °F 1.5 °F 12.9 °F 84% 30.12 in 7.0 mi North 17.3 mph - N/A   Scattered Clouds
4:37 AM 16.0 °F 1.7 °F 12.9 °F 88% 30.13 in 7.0 mi NNW 13.8 mph - N/A   Mostly Cloudy
4:53 AM 17.1 °F 1.5 °F 14.0 °F 88% 30.22 in 6.0 mi NNW 17.3 mph - N/A   Overcast
5:53 AM 17.1 °F 2.5 °F 14.0 °F 88% 30.24 in 7.0 mi NNW 15.0 mph - N/A   Overcast
6:10 AM 17.1 °F 2.5 °F 12.9 °F 84% 30.16 in 7.0 mi NNW 15.0 mph - N/A   Overcast
6:38 AM 17.1 °F 3.0 °F 12.9 °F 84% 30.16 in 7.0 mi NNW 13.8 mph - N/A   Overcast
6:53 AM 16.0 °F 1.7 °F 12.9 °F 88% 30.26 in 7.0 mi NNW 13.8 mph - N/A   Mostly Cloudy
7:12 AM 16.0 °F 3.6 °F 12.9 °F 88% 30.17 in 7.0 mi NNW 10.4 mph - N/A   Mostly Cloudy
7:25 AM 15.1 °F 3.3 °F 12.0 °F 88% 30.18 in 6.0 mi NNW 9.2 mph - N/A   Scattered Clouds
7:53 AM 15.1 °F 4.2 °F 12.0 °F 88% 30.27 in 6.0 mi NNW 8.1 mph - N/A   Clear
8:53 AM 16.0 °F 1.7 °F 10.9 °F 81% 30.29 in 7.0 mi NNW 13.8 mph - N/A   Clear
9:53 AM 18.0 °F 6.1 °F 10.9 °F 74% 30.29 in 9.0 mi North 10.4 mph - N/A   Mostly Cloudy
10:53 AM 21.0 °F 11.4 °F 12.9 °F 71% 30.30 in 10.0 mi North 8.1 mph - N/A   Overcast
11:53 AM 23.0 °F 13.9 °F 16.0 °F 74% 30.29 in 10.0 mi North 8.1 mph - N/A   Overcast
12:53 PM 26.1 °F 17.6 °F 19.0 °F 75% 30.25 in 10.0 mi NNW 8.1 mph - N/A   Mostly Cloudy
1:07 PM 27.0 °F 19.5 °F 19.0 °F 72% 30.16 in 10.0 mi NW 6.9 mph - N/A   Scattered Clouds
1:53 PM 30.0 °F 21.7 °F 21.0 °F 69% 30.24 in 10.0 mi NNW 9.2 mph - N/A   Partly Cloudy
2:53 PM 33.1 °F 26.1 °F 21.0 °F 61% 30.22 in 10.0 mi NW 8.1 mph - N/A   Clear
3:53 PM 34.0 °F 28.8 °F 21.0 °F 59% 30.22 in 10.0 mi WNW 5.8 mph - N/A   Clear
4:53 PM 33.1 °F 30.0 °F 21.0 °F 61% 30.22 in 10.0 mi SSW 3.5 mph - N/A   Clear
5:53 PM 28.9 °F 25.2 °F 21.0 °F 72% 30.22 in 10.0 mi South 3.5 mph - N/A   Clear
6:53 PM 28.0 °F 20.8 °F 21.0 °F 75% 30.22 in 10.0 mi South 6.9 mph - N/A   Clear
7:53 PM 26.1 °F 19.4 °F 21.0 °F 81% 30.22 in 10.0 mi SSW 5.8 mph - N/A   Clear
8:53 PM 24.1 °F 15.2 °F 19.9 °F 84% 30.22 in 10.0 mi SSW 8.1 mph - N/A   Clear
9:53 PM 21.9 °F 14.5 °F 19.0 °F 89% 30.20 in 10.0 mi SW 5.8 mph - N/A   Clear
10:53 PM 23.0 °F 14.7 °F 19.0 °F 85% 30.19 in 10.0 mi SW 6.9 mph - N/A   Clear
11:53 PM 26.1 °F 18.4 °F 19.9 °F 78% 30.16 in 10.0 mi SW 6.9 mph - N/A   Clear